カタログに戻る

ATLAS 5 CENTAUR DEB

運用中HEO
NORAD 44652·DEBRIS·🇺🇸 United States

打ち上げ Oct 17, 2018 から Cape Canaveral Space Force Station

Loading…

次のパス (今後24時間)

TLE

古いSource: Space-Track

元期: Aug 17, 2026, 10:48 UTC

1 44652U 18079N   26229.45033039 -.00000143  00000-0  00000-0 0  9993
2 44652  13.2193  29.1980 4426134 334.6294   8.8621  1.86501360 53313

AllMySatでATLAS 5 CENTAUR DEBをリアルタイム追跡

Download on the App Store